Regional Weather Roundup
Issued by NWS

Home | Current Version | Previous Version | Text Only | Print | Product List | Glossary Off
Versions: 1 2 3 4 5 6 7 8 9 10 11 12 13 14 15 16 17 18 19 20 21 22 23 24 25 26 27 28 29 30 31 32 33 34 35 36 37 38 39 40 41 42 43 44 45 46 47 48 49 50

000
ASUS43 KDTX 261001
RWRMI
MICHIGAN HOURLY REGIONAL WEATHER ROUNDUP
NATIONAL WEATHER SERVICE DETROIT/PONTIAC MI
500 AM EST FRI DEC 26 2014

NOTE: "FAIR" INDICATES FEW OR NO CLOUDS BELOW 12,000 FEET WITH NO
SIGNIFICANT WEATHER AND/OR OBSTRUCTION TO VISIBILITY.

MIZ047>049-052>055-059>063-066>070-074>076-081>083-261100-
SOUTHEAST LOWER MICHIGAN

CITY           SKY/WX    TMP DP  RH WIND       PRES   REMARKS
ADRIAN         PTCLDY    30  28  92 S7        30.13F WCI  23
ALMA           MOCLDY    33  32  96 S6        30.04F WCI  27
ANN ARBOR      MOCLDY    31  29  92 S6        30.12F WCI  25
BAD AXE        PTCLDY    32  32  99 S5        30.08F WCI  28
CARO           MOCLDY    35  31  87 S6        30.07F WCI  30
DETROIT CITY   PTCLDY    37  30  75 SW9       30.14F WCI  30
DETROIT        CLOUDY    32  30  92 S8        30.14F WCI  25
FLINT          MOCLDY    37  31  78 S8        30.09F WCI  31
GROSSE ILE     PTCLDY    36  30  80 S9        30.14F WCI  29
HILLSDALE      PTCLDY    32  32 100 S8        30.09S WCI  25
HOWELL         CLOUDY    34  32  92 S8        30.08F WCI  27

CITY           SKY/WX    TMP DP  RH WIND       PRES   REMARKS
JACKSON        MOCLDY    34  30  85 S8        30.08F WCI  27
LAMBERTVILLE   PTCLDY    32  30  93 S6        30.15F WCI  26
LANSING        CLOUDY    36  31  82 S10       30.06F WCI  28
LAPEER         FAIR      36  32  86 SW8       30.09F WCI  29
MASON          CLOUDY    34  31  86 S5        30.07F WCI  30
MONROE         PTCLDY    30  28  93 S3        30.13F
MT. CLEMENS    CLOUDY    35  35  99 S9        30.12F WCI  28
PONTIAC        MOCLDY    33  31  92 S6        30.09F WCI  28
PORT HOPE        N/A     34  29  82 W7        30.07F WCI  28
PORT HURON     PTCLDY    34  32  93 S7        30.13F WCI  28
TRI CITIES     CLOUDY    35  30  82 S6        30.07F WCI  30
TROY           MOCLDY    36  32  86 S6        30.14F WCI  31
SAGINAW HB     CLOUDY    34  32  93 S8        30.07F WCI  27
$$
MIZ043>046-050>051-056>058-064>065-071>073-077>080-261100-
SOUTHWEST LOWER MICHIGAN

CITY           SKY/WX    TMP DP  RH WIND       PRES   REMARKS
BATTLE CREEK   MOCLDY    35  30  82 S10       30.06F WCI  27
BENTON HARBOR  CLEAR     35  31  85 S7        30.03S WCI  29
BIG RAPIDS     PTCLDY    30  30 100 CALM      30.00F FOG
COLDWATER      PTCLDY    34  31  90 MISG      30.07F
FREMONT        FAIR      32  32  99 SE3       30.00S
HOLLAND        MOCLDY    38  32  79 S9        30.02F WCI  31
GRAND RAPIDS   CLOUDY    36  31  82 S12       30.03F WCI  28
IONIA          FAIR      36  32  87 S10       30.04F WCI  28
KALAMAZOO      PTCLDY    35  30  82 S9        30.05F WCI  28
LUDINGTON      MOCLDY    37  34  87 SE7       29.97F WCI  32
MARSHALL       PTCLDY    33  30  91 S5        30.06F WCI  28
MOUNT PLEASANT MOCLDY    28  27  97 CALM      30.03S FOG
MUSKEGON       CLOUDY    39  34  82 S10       30.01F WCI  32
SOUTH HAVEN    PTCLDY    38  32  80 S7        30.03S WCI  32
$$
MIZ016>042-261100-
NORTHERN LOWER MICHIGAN

CITY           SKY/WX    TMP DP  RH WIND       PRES   REMARKS
ALPENA         CLOUDY    35  31  85 S8        30.02F WCI  29
BEAVER ISLAND  CLOUDY    34  34 100 CALM      29.97R FOG
BELLAIRE       CLOUDY    38  34  85 S3        29.99S
CADILLAC       CLOUDY    34  33  94 S6        29.97F WCI  29
CHARLEVOIX     CLOUDY    39  36  89 S7        30.00R WCI  34
FRANKFORT      PTCLDY    38  36  89 S5        29.96F WCI  35
GAYLORD        CLOUDY    35  33  92 SW8       29.97S WCI  29
GRAYLING       CLOUDY    36  34  93 S6        30.00S WCI  31
HARBOR SPRINGS CLOUDY    38  35  86 SW6       29.97R WCI  34
HOUGHTON LAKE  CLOUDY    34  31  88 S8        30.01F WCI  27
MANISTEE       PTCLDY    37  34  87 SE3       29.98F
OSCODA         CLOUDY    34  31  90 SW3       30.05F
PELLSTON       CLOUDY    38  34  85 S5        29.98R WCI  34
ROGERS CITY    CLOUDY    35  33  93 S9        30.01R WCI  28
TRAVERSE CITY  MOCLDY    38  34  85 VRB6      29.97F WCI  33
$$
MIZ007>008-015-261100-
EASTERN UPPER MICHIGAN

CITY           SKY/WX    TMP DP  RH WIND       PRES   REMARKS
KINROSS        CLOUDY    34  32  93 S5        29.96S WCI  30
MACKINAC ISLAN CLOUDY    34  34 100 S5        29.97S WCI  30
NEWBERRY       CLOUDY    31  31 100 CALM      29.95R FOG
S. S. MARIE    CLOUDY    33  31  92 S3        29.96S
MUNISING         N/A     33  30  88 S5        29.94S WCI  29
$$
MIZ004>006-011>014-085-261100-
CENTRAL UPPER MICHIGAN

CITY           SKY/WX    TMP DP  RH WIND       PRES   REMARKS
MANISTIQUE     CLOUDY    32  32 100 CALM      29.95S FOG
ESCANABA       CLOUDY    30  28  93 CALM      29.95S
MENOMINEE      CLEAR     28  27  93 CALM      29.93F
SAWYER-GWINN   FOG       30  29  96 CALM      29.92R VSB 1
$$
MIZ001>003-009>011-084-261100-
WESTERN UPPER MICHIGAN

CITY           SKY/WX    TMP DP  RH WIND       PRES   REMARKS
IRON MOUNTAIN  CLOUDY    30  29  96 CALM      29.91S FOG
HOUGHTON       CLOUDY    30  28  92 NW5       29.90F WCI  25
COPPER HARBOR    N/A     33  29  85 VRB3      29.93R
IRONWOOD       CLOUDY    28  28 100 CALM      29.89R
$$

ABBREVIATIONS USED IN REMARKS
   TC - TEMPERATURE IN CELSIUS
  WCI - WIND CHILL INDEX
   HX - HEAT INDEX
  VSB - VISIBILITY



USA.gov is the U.S. government's official web portal to all federal, state and local government web resources and services.